• en Belgique
  • Liste des pays
  • À 7 jours
  • Température de l'eau
  • Carte satellitaire
  • Carte météo
  • Widgets météo
  • user-avatar
    Se connecter

    Météo par heure à Arlon

    Ce jour, 23 Novembre, Jeudi

    Heure Température Précipitation Vent Pression Humidité
    00:00 +5°C° 0 mm 4 m/s 724 mmHg 87%
    01:00 +5°C° 0 mm 4 m/s 723 mmHg 87%
    02:00 +5°C° 0 mm 4 m/s 723 mmHg 87%
    03:00 +5°C° 0 mm 5 m/s 723 mmHg 87%
    04:00 +6°C° 0 mm 5 m/s 723 mmHg 85%
    05:00 +6°C° 0 mm 5 m/s 723 mmHg 84%
    06:00 +7°C° 0 mm 6 m/s 723 mmHg 82%
    07:00 +8°C° 0 mm 7 m/s 723 mmHg 78%
    08:00 +9°C° 0 mm 7 m/s 724 mmHg 74%
    09:00 +9°C° 0 mm 8 m/s 724 mmHg 71%
    10:00 +10°C° 0 mm 8 m/s 724 mmHg 70%
    11:00 +11°C° 0 mm 9 m/s 724 mmHg 69%
    12:00 +12°C° 0 mm 9 m/s 725 mmHg 69%
    13:00 +12°C° 0 mm 8 m/s 725 mmHg 71%
    14:00 +11°C° 0 mm 8 m/s 725 mmHg 74%
    15:00 +11°C° 0 mm 7 m/s 726 mmHg 77%
    16:00 +10°C° 0,2 mm 6 m/s 726 mmHg 80%
    17:00 +10°C° 0,2 mm 6 m/s 727 mmHg 82%
    18:00 +10°C° 0,2 mm 5 m/s 727 mmHg 85%
    19:00 +9°C° 0,2 mm 5 m/s 728 mmHg 86%
    20:00 +9°C° 0,2 mm 5 m/s 728 mmHg 88%
    21:00 +10°C° 0,2 mm 4 m/s 728 mmHg 90%
    22:00 +10°C° 0,1 mm 4 m/s 728 mmHg 90%
    23:00 +10°C° 0,1 mm 4 m/s 728 mmHg 90%

    Demain, 24 Novembre, Vendredi

    Heure Température Précipitation Vent Pression Humidité
    00:00 +10°C° 0,1 mm 4 m/s 728 mmHg 90%
    01:00 +8°C° 0,1 mm 5 m/s 727 mmHg 89%
    02:00 +8°C° 0,1 mm 5 m/s 727 mmHg 89%
    03:00 +8°C° 0,1 mm 5 m/s 726 mmHg 89%
    04:00 +8°C° 1 mm 6 m/s 726 mmHg 89%
    05:00 +8°C° 1 mm 6 m/s 726 mmHg 89%
    06:00 +8°C° 1 mm 6 m/s 726 mmHg 90%
    07:00 +8°C° 1,1 mm 6 m/s 726 mmHg 89%
    08:00 +9°C° 1,1 mm 6 m/s 726 mmHg 89%
    09:00 +9°C° 1,1 mm 7 m/s 726 mmHg 89%
    10:00 +9°C° 0,1 mm 7 m/s 727 mmHg 88%
    11:00 +9°C° 0,1 mm 7 m/s 727 mmHg 87%
    12:00 +9°C° 0,1 mm 7 m/s 727 mmHg 87%
    13:00 +9°C° 0,1 mm 6 m/s 728 mmHg 87%
    14:00 +8°C° 0,1 mm 5 m/s 728 mmHg 88%
    15:00 +8°C° 0,1 mm 4 m/s 729 mmHg 88%
    16:00 +7°C° 0 mm 4 m/s 729 mmHg 89%
    17:00 +7°C° 0 mm 3 m/s 730 mmHg 91%
    18:00 +6°C° 0 mm 2 m/s 730 mmHg 92%
    19:00 +5°C° 0,1 mm 2 m/s 731 mmHg 92%
    20:00 +6°C° 0,1 mm 1 m/s 731 mmHg 92%
    21:00 +6°C° 0,1 mm 1 m/s 731 mmHg 92%
    22:00 +6°C° 0,3 mm 1 m/s 731 mmHg 93%
    23:00 +6°C° 0,3 mm 1 m/s 730 mmHg 93%

    Après-demain, 25 Novembre, Samedi

    Heure Température Précipitation Vent Pression Humidité
    00:00 +6°C° 0,3 mm 1 m/s 730 mmHg 93%
    01:00 +5°C° 0,5 mm 1 m/s 730 mmHg 93%
    02:00 +5°C° 0,5 mm 1 m/s 730 mmHg 94%
    03:00 +5°C° 0,5 mm 1 m/s 729 mmHg 94%
    04:00 +4°C° 0,1 mm 0 m/s 729 mmHg 94%
    05:00 +4°C° 0,1 mm 0 m/s 729 mmHg 95%
    06:00 +3°C° 0,1 mm 0 m/s 729 mmHg 95%
    07:00 +4°C° 0 mm 0 m/s 729 mmHg 93%
    08:00 +4°C° 0 mm 0 m/s 729 mmHg 92%
    09:00 +4°C° 0 mm 0 m/s 729 mmHg 90%
    10:00 +6°C° 0,4 mm 1 m/s 729 mmHg 88%
    11:00 +6°C° 0,4 mm 1 m/s 729 mmHg 86%
    12:00 +5°C° 0,4 mm 2 m/s 729 mmHg 84%
    13:00 +4°C° 1,8 mm 3 m/s 729 mmHg 85%
    14:00 +3°C° 1,8 mm 4 m/s 729 mmHg 87%
    15:00 +1°C° 1,8 mm 6 m/s 730 mmHg 88%
    16:00 0°C° 0,5 mm 5 m/s 731 mmHg 88%
    17:00 0°C° 0,5 mm 5 m/s 731 mmHg 88%
    18:00 -1°C° 0,5 mm 4 m/s 732 mmHg 88%
    19:00 -1°C° 0 mm 4 m/s 733 mmHg 89%
    20:00 -2°C° 0 mm 4 m/s 734 mmHg 90%
    21:00 -2°C° 0 mm 3 m/s 735 mmHg 91%
    22:00 -2°C° 0 mm 3 m/s 735 mmHg 92%
    23:00 -2°C° 0 mm 3 m/s 735 mmHg 92%

    26 Novembre, Dimanche

    Heure Température Précipitation Vent Pression Humidité
    00:00 -2°C° 0 mm 3 m/s 736 mmHg 93%
    01:00 -2°C° 0 mm 3 m/s 736 mmHg 94%
    02:00 -2°C° 0 mm 3 m/s 736 mmHg 94%
    03:00 -2°C° 0 mm 3 m/s 736 mmHg 94%
    04:00 -2°C° 0,1 mm 3 m/s 736 mmHg 95%
    05:00 -2°C° 0,1 mm 3 m/s 736 mmHg 95%
    06:00 -2°C° 0,1 mm 3 m/s 736 mmHg 96%
    07:00 -2°C° 0 mm 3 m/s 736 mmHg 94%
    08:00 -2°C° 0 mm 4 m/s 737 mmHg 93%
    09:00 -1°C° 0 mm 4 m/s 737 mmHg 91%
    10:00 -1°C° 0 mm 4 m/s 737 mmHg 88%
    11:00 0°C° 0 mm 5 m/s 737 mmHg 84%
    12:00 +1°C° 0 mm 5 m/s 737 mmHg 80%
    13:00 +1°C° 0 mm 4 m/s 737 mmHg 82%
    14:00 0°C° 0 mm 4 m/s 737 mmHg 84%
    15:00 +1°C° 0 mm 3 m/s 737 mmHg 85%
    16:00 0°C° 0 mm 3 m/s 737 mmHg 88%
    17:00 0°C° 0 mm 3 m/s 738 mmHg 90%
    18:00 -1°C° 0 mm 3 m/s 738 mmHg 93%
    19:00 -1°C° 0 mm 3 m/s 738 mmHg 93%
    20:00 -1°C° 0 mm 3 m/s 738 mmHg 94%
    21:00 -1°C° 0 mm 3 m/s 738 mmHg 94%
    22:00 -1°C° 0 mm 3 m/s 738 mmHg 95%
    23:00 -1°C° 0 mm 3 m/s 737 mmHg 95%

    27 Novembre, Lundi

    Heure Température Précipitation Vent Pression Humidité
    00:00 -1°C° 0 mm 3 m/s 737 mmHg 96%
    01:00 -2°C° 0 mm 3 m/s 737 mmHg 96%
    02:00 -2°C° 0 mm 3 m/s 737 mmHg 96%
    03:00 -2°C° 0 mm 2 m/s 737 mmHg 96%
    04:00 -2°C° 0 mm 2 m/s 737 mmHg 97%
    05:00 -2°C° 0 mm 2 m/s 737 mmHg 97%
    06:00 -2°C° 0 mm 2 m/s 737 mmHg 97%
    07:00 -2°C° 0 mm 3 m/s 737 mmHg 96%
    08:00 -1°C° 0 mm 3 m/s 737 mmHg 95%
    09:00 -1°C° 0 mm 4 m/s 737 mmHg 94%
    10:00 0°C° 0 mm 4 m/s 737 mmHg 92%
    11:00 +1°C° 0 mm 5 m/s 736 mmHg 90%
    12:00 +1°C° 0 mm 5 m/s 736 mmHg 88%
    13:00 +1°C° 0,1 mm 6 m/s 735 mmHg 88%
    14:00 +1°C° 0,1 mm 6 m/s 734 mmHg 89%
    15:00 +1°C° 0,1 mm 6 m/s 734 mmHg 89%
    16:00 +1°C° 0,5 mm 6 m/s 733 mmHg 90%
    17:00 0°C° 0,5 mm 7 m/s 733 mmHg 91%
    18:00 0°C° 0,5 mm 7 m/s 733 mmHg 91%
    19:00 0°C° 0,5 mm 7 m/s 732 mmHg 91%
    20:00 +1°C° 0,5 mm 6 m/s 732 mmHg 92%
    21:00 +1°C° 0,5 mm 6 m/s 732 mmHg 92%
    22:00 +1°C° 0,2 mm 6 m/s 732 mmHg 92%
    23:00 +1°C° 0,2 mm 6 m/s 731 mmHg 93%

    28 Novembre, Mardi

    Heure Température Précipitation Vent Pression Humidité
    00:00 +1°C° 0,2 mm 5 m/s 731 mmHg 94%
    01:00 +1°C° 0,3 mm 5 m/s 731 mmHg 94%
    02:00 +1°C° 0,3 mm 5 m/s 730 mmHg 94%
    03:00 +1°C° 0,3 mm 5 m/s 730 mmHg 94%
    04:00 +1°C° 0,3 mm 6 m/s 729 mmHg 94%
    05:00 +1°C° 0,3 mm 6 m/s 729 mmHg 94%
    06:00 +1°C° 0,3 mm 6 m/s 728 mmHg 94%
    07:00 +1°C° 0,8 mm 6 m/s 728 mmHg 94%
    08:00 +1°C° 0,8 mm 6 m/s 727 mmHg 94%
    09:00 +1°C° 0,8 mm 6 m/s 727 mmHg 93%
    10:00 0°C° 0,9 mm 7 m/s 726 mmHg 93%
    11:00 0°C° 0,9 mm 7 m/s 725 mmHg 92%
    12:00 0°C° 0,9 mm 7 m/s 725 mmHg 92%
    13:00 0°C° 0,7 mm 7 m/s 724 mmHg 92%
    14:00 +2°C° 0,7 mm 6 m/s 724 mmHg 93%
    15:00 +2°C° 0,7 mm 6 m/s 724 mmHg 93%
    16:00 +2°C° 0,1 mm 6 m/s 724 mmHg 94%
    17:00 +2°C° 0,1 mm 5 m/s 724 mmHg 94%
    18:00 +2°C° 0,1 mm 5 m/s 724 mmHg 94%
    19:00 +2°C° 0,1 mm 5 m/s 724 mmHg 95%
    20:00 +3°C° 0,1 mm 4 m/s 724 mmHg 95%
    21:00 +3°C° 0,1 mm 4 m/s 724 mmHg 96%
    22:00 +2°C° 0 mm 3 m/s 724 mmHg 96%
    23:00 +2°C° 0 mm 3 m/s 724 mmHg 97%
    Voir plus